Terminal Aerodrome Forecast
Issued by NWS Louisville, KY

Home | Current Version | Previous Version | Text Only | Print | Product List | Glossary On
Versions: 1 2 3 4 5 6 7 8 9 10 11 12 13
000
FTUS43 KLMK 301100
TAFLEX
TAF
KLEX 301124Z 3012/3112 17005KT P6SM SCT060 BKN080
     FM301500 25005KT P6SM SCT050 SCT150
     FM310200 22002KT P6SM SCT100=

USA.gov is the U.S. government's official web portal to all federal, state and local government web resources and services.